RH
70 68 64 61 62 56 54 55 57 59 64 48 51 37 49 40 41 32 44 30 24 20 18 16 14 32 100 100 100 100 100 100
62 64 69 70 68 62 57 55 55 62 66 60 50 43 70 63 47 32 61 31 27 23 21 16 15 18 100 100 100 100 100 100
55 52 55 64 65 56 57 62 76 69 74 63 53 34 35 36 32 37 56 42 37 26 22 19 16 16 27 100 100 100 100 100
49 53 56 55 50 49 57 99 100 99 100 77 65 39 41 41 30 45 43 63 48 39 27 22 18 18 20 35 100 100 100 100
49 56 61 60 54 49 49 58 100 100 100 88 81 59 44 43 41 69 45 53 40 36 32 26 20 21 34 58 99 100 100 100
52 64 76 84 84 65 63 56 92 100 100 100 99 85 47 55 68 64 62 46 39 50 33 26 20 28 41 63 92 91 96 100
39 43 46 46 70 88 84 59 85 100 100 100 100 94 51 92 73 44 43 40 39 45 41 28 22 30 59 73 71 91 95 95
68 55 42 42 41 45 72 71 59 69 100 91 100 78 63 89 74 43 43 33 37 58 66 42 26 53 64 86 65 93 100 100
83 70 51 55 55 56 49 65 69 72 88 95 100 56 98 91 76 44 36 35 61 73 69 55 42 53 85 100 90 100 100 100
100 99 86 76 74 67 52 60 65 79 76 91 87 73 100 100 78 39 34 37 68 74 74 55 53 59 80 100 100 100 100 94
73 85 95 92 86 76 59 52 55 91 88 100 100 100 100 100 75 40 35 46 82 82 83 98 53 86 86 100 100 100 100 100
38 48 62 82 89 87 69 64 60 88 100 100 100 100 100 100 74 40 36 54 72 100 100 91 90 86 73 100 100 100 100 100
38 38 41 47 79 88 81 85 93 75 100 100 100 100 100 100 76 51 31 45 90 100 100 56 78 84 87 86 100 100 100 86
29 36 46 46 66 70 72 86 77 67 98 100 100 100 100 80 89 45 36 86 95 100 100 85 54 58 97 86 100 100 100 99
24 22 30 51 57 65 89 86 98 95 93 100 100 98 79 72 91 39 35 71 87 72 99 71 74 51 95 96 84 100 100 100
20 23 30 39 57 67 80 98 100 100 100 100 100 100 100 100 91 85 76 63 66 56 66 74 99 75 76 100 100 96 99 89
19 22 34 38 41 55 61 100 99 98 100 100 96 70 85 95 100 98 79 65 47 38 67 70 78 86 61 89 85 100 100 98
25 29 41 48 46 50 62 88 100 100 100 100 88 59 74 82 100 100 99 91 82 44 47 90 71 92 66 81 77 62 74 100
32 43 55 69 47 58 64 93 96 100 100 100 100 70 82 84 90 92 100 87 68 44 46 95 76 88 84 80 65 63 58 58
41 62 66 86 82 77 77 96 100 100 100 100 100 100 86 99 84 66 84 89 70 53 54 94 69 79 81 86 89 80 60 40
Wind_Speed
44 43 42 43 45 45 45 44 42 40 38 39 37 33 35 37 41 37 38 37 40 40 38 33 33 38 56 54 54 55 54 56
48 44 45 47 49 47 48 48 45 41 39 40 41 36 36 38 42 37 43 39 44 43 39 35 31 30 57 57 52 55 52 51
54 50 48 49 50 48 51 52 51 45 44 44 43 39 39 39 40 39 43 44 50 47 41 38 31 33 40 63 55 56 56 55
57 58 58 57 54 50 51 55 55 52 49 47 45 44 46 42 39 41 45 49 51 48 44 40 33 31 35 51 62 54 53 56
59 62 64 65 62 56 54 55 57 54 51 48 49 48 47 40 40 43 49 48 46 46 46 38 32 29 32 37 52 58 54 49
58 62 62 63 61 58 57 53 51 51 52 50 52 50 48 41 42 48 50 48 45 47 46 39 31 27 29 29 32 43 50 42
53 55 58 60 61 59 57 52 48 50 50 50 51 50 48 42 41 48 44 45 43 43 43 38 28 26 25 26 32 31 41 33
60 58 57 55 56 59 62 59 54 52 51 51 49 49 47 47 46 47 43 39 38 37 42 36 28 24 24 24 28 29 35 29
64 63 60 61 62 59 61 62 57 55 53 52 48 49 46 51 51 46 42 37 37 38 41 35 27 25 23 23 23 27 32 27
66 65 64 65 64 61 59 58 60 57 55 53 51 49 45 47 49 46 38 36 36 33 39 33 27 26 22 23 21 29 33 29
77 72 68 70 69 65 62 57 58 58 55 52 51 43 45 45 47 42 37 36 36 33 41 34 26 28 24 23 21 30 30 28
85 80 75 73 73 69 67 64 59 58 53 46 44 44 47 46 45 40 38 35 37 35 38 31 28 31 27 24 23 30 32 27
77 83 84 81 77 74 68 68 63 61 54 56 51 50 52 46 44 39 37 35 36 31 38 36 33 34 34 27 26 30 30 25
74 78 81 79 78 77 72 73 69 66 62 58 54 55 51 47 44 39 38 39 35 33 41 43 34 34 38 31 29 34 33 32
76 75 74 78 79 75 78 76 74 71 69 64 63 58 51 48 46 40 38 37 36 36 40 42 33 32 39 35 30 36 37 33
76 79 79 77 80 80 80 79 75 75 72 69 62 59 55 51 48 49 43 38 36 39 40 41 37 32 42 38 36 34 35 35
76 78 82 81 77 80 84 85 77 74 70 69 64 58 54 53 53 52 48 45 42 41 40 40 39 34 38 44 38 37 42 36
73 77 78 81 79 77 82 84 79 69 65 64 63 56 54 53 53 51 48 47 43 42 44 39 39 36 37 42 41 38 37 47
71 75 76 78 75 75 78 77 77 70 66 67 64 57 51 51 48 48 52 49 45 47 43 40 37 37 37 40 41 42 42 40
66 70 72 71 71 70 73 75 73 74 70 68 63 57 54 52 49 48 51 47 51 48 40 41 39 38 41 44 42 42 43 45
Wind_Direction
269 273 277 281 285 288 291 292 294 299 300 305 305 309 312 309 317 314 318 309 303 301 299 290 281 240 233 231 238 240 241 244
263 266 272 279 282 287 290 291 290 293 294 300 305 306 311 309 312 312 316 315 310 305 305 301 277 255 233 234 235 241 241 246
270 272 271 273 279 285 288 290 291 290 290 295 300 300 304 307 311 311 311 315 315 307 304 300 285 257 245 238 238 241 245 243
277 279 276 276 278 280 285 290 288 286 287 288 295 295 299 302 312 313 315 314 314 311 311 307 294 267 252 242 235 239 247 252
269 275 279 280 280 278 278 283 286 280 282 284 288 294 301 295 309 308 316 313 311 314 314 311 296 271 257 246 241 243 247 252
270 270 273 277 278 279 277 275 281 280 277 278 283 289 297 297 302 307 312 310 312 316 315 312 299 273 256 259 247 251 254 258
275 274 276 277 278 280 280 274 274 276 276 273 276 282 290 293 299 309 308 309 317 312 317 312 299 271 255 247 247 249 256 255
276 275 273 278 281 279 277 277 273 272 273 276 273 278 287 287 297 305 305 309 318 313 319 315 294 266 260 257 249 243 244 243
272 272 273 272 276 279 274 272 271 272 271 272 272 280 282 282 293 303 306 309 314 310 319 311 292 261 251 258 257 243 245 247
264 266 269 270 270 271 271 270 270 271 271 272 270 277 279 284 294 298 301 306 311 322 326 310 288 265 253 257 244 244 245 249
262 259 259 261 262 264 266 271 272 270 272 270 265 266 271 284 289 296 296 303 305 318 323 316 292 261 253 254 240 236 252 248
263 261 260 257 257 257 260 264 264 263 263 263 261 264 276 281 285 290 292 298 303 312 316 303 291 261 255 254 242 233 245 244
262 260 261 257 250 251 252 257 259 261 265 263 262 264 271 277 280 285 292 295 299 299 303 303 268 266 256 247 244 244 240 241
261 259 257 256 246 248 248 250 252 253 254 257 258 262 269 275 277 279 285 290 295 294 297 309 284 265 247 248 238 233 239 248
263 262 258 252 250 245 245 246 250 249 249 253 259 264 269 271 272 272 277 285 290 285 293 308 296 267 243 244 243 241 249 244
262 260 256 251 245 243 242 243 247 249 248 248 253 259 263 266 269 270 272 280 281 282 293 306 293 275 245 237 241 244 246 243
257 253 251 249 245 242 242 240 243 247 249 248 248 250 255 259 264 264 267 273 279 284 286 295 290 277 249 240 240 243 247 252
251 248 247 247 245 241 240 241 239 242 245 248 249 250 251 257 260 262 264 267 274 281 284 286 289 277 252 243 238 240 245 244
245 242 241 242 245 243 241 241 241 237 239 244 249 249 248 250 255 256 263 262 274 282 278 282 288 273 256 249 240 243 248 246
241 236 236 236 240 238 238 237 239 234 236 241 246 246 245 245 248 252 258 261 273 276 274 276 286 274 257 250 244 243 246 252